| time (UTC) | temp F | wind direction | speed MPH | gust MPH | rain 1hr in | rain 24hr in | rain mn in | humidity % | barometer mb |
| 20260504195941 | 69 | 153 | 0.0 | 2.0 | 0.00 | 0.01 | 0.01 | 93 | 1013.6 |
| 20260504195442 | 69 | 153 | 0.0 | 2.0 | 0.00 | 0.01 | 0.01 | 93 | 1013.4 |
| 20260504194939 | 69 | 236 | 0.0 | 2.0 | 0.00 | 0.01 | 0.01 | 92 | 1013.4 |
| 20260504194439 | 69 | 236 | 1.0 | 2.0 | 0.00 | 0.01 | 0.01 | 92 | 1013.5 |
| 20260504193912 | 69 | 131 | 0.0 | 2.0 | 0.00 | 0.01 | 0.01 | 92 | 1013.4 |
| 20260504193346 | 69 | 131 | 0.0 | 2.0 | 0.00 | 0.01 | 0.01 | 93 | 1013.4 |
| 20260504192819 | 69 | 131 | 0.0 | 2.0 | 0.00 | 0.01 | 0.01 | 92 | 1013.4 |
| 20260504192549 | 69 | 131 | 1.0 | 2.0 | 0.00 | 0.01 | 0.01 | 92 | 1013.4 |
| 20260504191753 | 69 | 247 | 0.0 | 2.0 | 0.00 | 0.01 | 0.01 | 93 | 1013.6 |
| 20260504191230 | 69 | 247 | 1.0 | 3.0 | 0.00 | 0.01 | 0.01 | 93 | 1013.6 |
| 20260504190730 | 69 | 291 | 1.0 | 3.0 | 0.00 | 0.01 | 0.01 | 93 | 1013.5 |
| 20260504190222 | 69 | 241 | 1.0 | 3.0 | 0.00 | 0.01 | 0.01 | 92 | 1013.6 |
| 20260504185709 | 69 | 241 | 1.0 | 3.0 | 0.01 | 0.01 | 0.01 | 92 | 1013.7 |
| 20260504185206 | 69 | 248 | 0.0 | 2.0 | 0.01 | 0.01 | 0.01 | 92 | 1013.6 |
| 20260504184706 | 69 | 248 | 0.0 | 2.0 | 0.01 | 0.01 | 0.01 | 91 | 1013.7 |
| 20260504184435 | 69 | 248 | 0.0 | 2.0 | 0.01 | 0.01 | 0.01 | 91 | 1013.7 |
| 20260504183637 | 69 | 336 | 0.0 | 1.0 | 0.01 | 0.01 | 0.01 | 91 | 1013.8 |
| 20260504183112 | 69 | 323 | 1.0 | 3.0 | 0.01 | 0.01 | 0.01 | 91 | 1013.9 |
| 20260504182559 | 69 | 323 | 2.0 | 4.0 | 0.01 | 0.01 | 0.01 | 89 | 1014.0 |
| 20260504182328 | 69 | 323 | 2.0 | 4.0 | 0.01 | 0.01 | 0.01 | 88 | 1014.0 |
| 20260504181556 | 69 | 346 | 2.0 | 4.0 | 0.01 | 0.01 | 0.01 | 88 | 1014.0 |
| 20260504181057 | 69 | 13 | 2.0 | 7.0 | 0.01 | 0.01 | 0.01 | 87 | 1014.1 |
| 20260504180533 | 70 | 336 | 2.0 | 7.0 | 0.01 | 0.01 | 0.01 | 86 | 1014.1 |
| 20260504180035 | 70 | 293 | 4.0 | 7.0 | 0.00 | 0.00 | 0.00 | 86 | 1014.2 |
| 20260504175533 | 70 | 302 | 5.0 | 10.0 | 0.00 | 0.00 | 0.00 | 84 | 1014.1 |
| 20260504175032 | 71 | 18 | 3.0 | 10.0 | 0.00 | 0.00 | 0.00 | 83 | 1014.0 |
| 20260504174738 | 71 | 264 | 1.0 | 4.0 | 0.00 | 0.00 | 0.00 | 82 | 1014.0 |
| 20260504173943 | 71 | 305 | 1.0 | 3.0 | 0.00 | 0.00 | 0.00 | 84 | 1014.0 |
| 20260504173443 | 71 | 305 | 1.0 | 3.0 | 0.00 | 0.00 | 0.00 | 83 | 1013.9 |
| 20260504172941 | 71 | 285 | 1.0 | 3.0 | 0.00 | 0.00 | 0.00 | 83 | 1014.0 |
| 20260504172431 | 71 | 285 | 1.0 | 3.0 | 0.00 | 0.00 | 0.00 | 82 | 1013.9 |
| 20260504171929 | 72 | 285 | 1.0 | 3.0 | 0.00 | 0.00 | 0.00 | 81 | 1014.0 |
| 20260504171429 | 72 | 283 | 1.0 | 3.0 | 0.00 | 0.00 | 0.00 | 81 | 1014.1 |
| 20260504171133 | 72 | 292 | 0.0 | 2.0 | 0.00 | 0.00 | 0.00 | 81 | 1014.0 |
| 20260504170352 | 72 | 258 | 1.0 | 3.0 | 0.00 | 0.00 | 0.00 | 81 | 1013.9 |
| 20260504160200 | 72 | 298 | 3.0 | 7.0 | 0.00 | 0.00 | 0.00 | 77 | 1014.6 |
| 20260504151116 | 73 | 314 | 4.0 | 9.0 | 0.00 | 0.00 | 0.00 | 76 | 1015.2 |
| 20260504150616 | 73 | 348 | 4.0 | 9.0 | 0.00 | 0.00 | 0.00 | 75 | 1015.1 |
| 20260504150114 | 72 | 350 | 3.0 | 8.0 | 0.00 | 0.00 | 0.00 | 76 | 1015.2 |
| 20260504140932 | 66 | 120 | 1.0 | 5.0 | 0.00 | 0.00 | 0.00 | 89 | 1015.7 |
| 20260504140636 | 65 | 224 | 2.0 | 5.0 | 0.00 | 0.00 | 0.00 | 92 | 1015.8 |
| 20260504130351 | 56 | 88 | 1.0 | 3.0 | 0.00 | 0.00 | 0.00 | 99 | 1016.3 |
| 20260504110205 | 47 | 290 | 0.0 | 0.0 | 0.00 | 0.00 | 0.00 | 99 | 1015.8 |
| 20260504100453 | 45 | 290 | 0.0 | 0.0 | 0.00 | 0.00 | 0.00 | 98 | 1015.9 |
| 20260504081623 | 45 | 290 | 0.0 | 0.0 | 0.00 | 0.00 | 0.00 | 98 | 1015.7 |
| 20260504081055 | 45 | 290 | 0.0 | 0.0 | 0.00 | 0.00 | 0.00 | 98 | 1015.7 |
| 20260504080536 | 45 | 290 | 0.0 | 0.0 | 0.00 | 0.00 | 0.00 | 98 | 1015.7 |
| 20260504070346 | 45 | 290 | 0.0 | 0.0 | 0.00 | 0.00 | 0.00 | 97 | 1015.8 |
| 20260504060211 | 45 | 290 | 0.0 | 0.0 | 0.00 | 0.00 | 0.00 | 97 | 1016.3 |
| 20260504050507 | 46 | 290 | 0.0 | 0.0 | 0.00 | 0.00 | 0.00 | 97 | 1016.8 |
| 20260504050002 | 46 | 290 | 0.0 | 0.0 | 0.00 | 0.00 | 0.00 | 98 | 1017.0 |
| 20260504045500 | 46 | 290 | 0.0 | 0.0 | 0.00 | 0.00 | 0.00 | 98 | 1017.1 |
| 20260504044959 | 46 | 290 | 0.0 | 0.0 | 0.00 | 0.00 | 0.00 | 98 | 1017.2 |
| 20260504044501 | 45 | 290 | 0.0 | 0.0 | 0.00 | 0.00 | 0.00 | 97 | 1017.1 |
| 20260504043935 | 45 | 290 | 0.0 | 0.0 | 0.00 | 0.00 | 0.00 | 97 | 1017.2 |
| 20260504043429 | 45 | 290 | 0.0 | 0.0 | 0.00 | 0.00 | 0.00 | 97 | 1017.2 |
| 20260504042912 | 45 | 290 | 0.0 | 0.0 | 0.00 | 0.00 | 0.00 | 97 | 1017.3 |
| 20260504042640 | 45 | 290 | 0.0 | 0.0 | 0.00 | 0.00 | 0.00 | 97 | 1017.4 |
| 20260504041909 | 45 | 290 | 0.0 | 0.0 | 0.00 | 0.00 | 0.00 | 97 | 1017.6 |
| 20260504041348 | 45 | 290 | 0.0 | 0.0 | 0.00 | 0.00 | 0.00 | 97 | 1017.6 |
| 20260504040822 | 45 | 290 | 0.0 | 0.0 | 0.00 | 0.00 | 0.00 | 97 | 1017.5 |
| 20260504040302 | 45 | 290 | 0.0 | 0.0 | 0.00 | 0.00 | 0.00 | 97 | 1017.4 |
| 20260504040030 | 45 | 290 | 0.0 | 0.0 | 0.00 | 0.00 | 0.00 | 97 | 1017.5 |
| 20260504035259 | 45 | 290 | 0.0 | 0.0 | 0.00 | 0.00 | 0.00 | 97 | 1017.5 |
| 20260504034757 | 45 | 290 | 0.0 | 0.0 | 0.00 | 0.00 | 0.00 | 97 | 1017.5 |
| 20260504034529 | 45 | 290 | 0.0 | 0.0 | 0.00 | 0.00 | 0.00 | 97 | 1017.8 |
| 20260504033758 | 45 | 290 | 0.0 | 0.0 | 0.00 | 0.00 | 0.00 | 97 | 1017.8 |
| 20260504033228 | 45 | 290 | 0.0 | 0.0 | 0.00 | 0.00 | 0.00 | 96 | 1017.8 |
| 20260504032721 | 45 | 290 | 0.0 | 0.0 | 0.00 | 0.00 | 0.00 | 96 | 1018.1 |
| 20260504032211 | 45 | 290 | 0.0 | 0.0 | 0.00 | 0.00 | 0.00 | 96 | 1018.0 |
| 20260504031707 | 45 | 290 | 0.0 | 0.0 | 0.00 | 0.00 | 0.00 | 97 | 1018.0 |
| 20260504031209 | 45 | 290 | 0.0 | 0.0 | 0.00 | 0.00 | 0.00 | 97 | 1018.1 |
| 20260504030643 | 45 | 290 | 0.0 | 0.0 | 0.00 | 0.00 | 0.00 | 97 | 1018.1 |
| 20260504030141 | 46 | 290 | 0.0 | 1.0 | 0.00 | 0.00 | 0.00 | 97 | 1018.1 |
| 20260504025607 | 46 | 290 | 1.0 | 2.0 | 0.00 | 0.00 | 0.00 | 97 | 1018.2 |
| 20260504025052 | 45 | 290 | 1.0 | 2.0 | 0.00 | 0.00 | 0.00 | 97 | 1018.2 |
| 20260504024550 | 45 | 290 | 0.0 | 2.0 | 0.00 | 0.00 | 0.00 | 96 | 1018.2 |
| 20260504024023 | 45 | 290 | 0.0 | 1.0 | 0.00 | 0.00 | 0.00 | 96 | 1018.2 |
| 20260504023506 | 45 | 290 | 0.0 | 2.0 | 0.00 | 0.00 | 0.00 | 96 | 1018.2 |
| 20260504022942 | 44 | 290 | 0.0 | 2.0 | 0.00 | 0.00 | 0.00 | 95 | 1018.3 |
| 20260504022653 | 45 | 290 | 0.0 | 0.0 | 0.00 | 0.00 | 0.00 | 95 | 1018.4 |
| 20260504021923 | 45 | 290 | 0.0 | 1.0 | 0.00 | 0.00 | 0.00 | 95 | 1018.5 |
| 20260504021419 | 45 | 290 | 0.0 | 1.0 | 0.00 | 0.00 | 0.00 | 95 | 1018.6 |
| 20260504020854 | 45 | 290 | 0.0 | 2.0 | 0.00 | 0.00 | 0.00 | 95 | 1018.5 |
| 20260504020343 | 45 | 290 | 0.0 | 2.0 | 0.00 | 0.00 | 0.00 | 96 | 1018.5 |
| 20260504015831 | 45 | 290 | 0.0 | 0.0 | 0.00 | 0.00 | 0.00 | 96 | 1018.7 |
| 20260504015340 | 46 | 290 | 0.0 | 0.0 | 0.00 | 0.00 | 0.00 | 96 | 1018.7 |
| 20260504014825 | 46 | 290 | 0.0 | 0.0 | 0.00 | 0.00 | 0.00 | 95 | 1018.6 |
| 20260504014257 | 46 | 290 | 0.0 | 0.0 | 0.00 | 0.00 | 0.00 | 95 | 1018.7 |
| 20260504013755 | 46 | 290 | 0.0 | 1.0 | 0.00 | 0.00 | 0.00 | 95 | 1018.7 |
| 20260504013526 | 46 | 290 | 1.0 | 2.0 | 0.00 | 0.00 | 0.00 | 95 | 1018.8 |
| 20260504012754 | 46 | 290 | 1.0 | 2.0 | 0.00 | 0.00 | 0.00 | 95 | 1018.9 |
| 20260504012257 | 46 | 290 | 0.0 | 1.0 | 0.00 | 0.00 | 0.00 | 95 | 1018.8 |
| 20260504011728 | 46 | 290 | 0.0 | 0.0 | 0.00 | 0.00 | 0.00 | 95 | 1018.9 |
| 20260504011212 | 46 | 290 | 0.0 | 1.0 | 0.00 | 0.00 | 0.00 | 95 | 1018.9 |
| 20260504010709 | 46 | 290 | 0.0 | 1.0 | 0.00 | 0.00 | 0.00 | 95 | 1018.9 |
| 20260504010206 | 46 | 290 | 0.0 | 1.0 | 0.00 | 0.00 | 0.00 | 95 | 1018.9 |
| 20260504005657 | 46 | 290 | 0.0 | 1.0 | 0.00 | 0.00 | 0.00 | 95 | 1019.0 |
| 20260504005423 | 46 | 290 | 0.0 | 1.0 | 0.00 | 0.00 | 0.00 | 95 | 1019.1 |
| 20260504004650 | 46 | 290 | 0.0 | 1.0 | 0.00 | 0.00 | 0.00 | 95 | 1019.1 |
| 20260504004122 | 47 | 290 | 0.0 | 2.0 | 0.00 | 0.00 | 0.00 | 94 | 1019.1 |
| 20260504003556 | 47 | 290 | 0.0 | 2.0 | 0.00 | 0.00 | 0.00 | 94 | 1019.0 |
| 20260504003032 | 47 | 290 | 0.0 | 2.0 | 0.00 | 0.00 | 0.00 | 94 | 1018.9 |
| 20260504003026 | 47 | 290 | 0.0 | 2.0 | 0.00 | 0.00 | 0.00 | 94 | 1018.8 |
| 20260504002249 | 47 | 290 | 0.0 | 2.0 | 0.00 | 0.00 | 0.00 | 94 | 1018.7 |
| 20260504001453 | 47 | 290 | 0.0 | 1.0 | 0.00 | 0.00 | 0.00 | 94 | 1018.5 |
| 20260504000955 | 47 | 290 | 0.0 | 1.0 | 0.00 | 0.00 | 0.00 | 93 | 1018.5 |
| 20260504000427 | 47 | 290 | 0.0 | 1.0 | 0.00 | 0.00 | 0.00 | 93 | 1018.5 |
| 20260503235901 | 48 | 290 | 0.0 | 1.0 | 0.00 | 0.00 | 0.00 | 93 | 1018.6 |
| 20260503235337 | 48 | 290 | 0.0 | 1.0 | 0.00 | 0.00 | 0.00 | 93 | 1018.7 |
| 20260503235101 | 48 | 290 | 0.0 | 1.0 | 0.00 | 0.00 | 0.00 | 93 | 1018.8 |
| 20260503234308 | 48 | 290 | 1.0 | 2.0 | 0.00 | 0.00 | 0.00 | 93 | 1018.9 |
| 20260503234250 | 49 | 290 | 1.0 | 2.0 | 0.00 | 0.00 | 0.00 | 94 | 1018.8 |
| 20260503233245 | 49 | 290 | 0.0 | 2.0 | 0.00 | 0.00 | 0.00 | 93 | 1018.9 |
| 20260503232744 | 49 | 290 | 0.0 | 2.0 | 0.00 | 0.00 | 0.00 | 93 | 1018.8 |
| 20260503232244 | 49 | 290 | 0.0 | 2.0 | 0.00 | 0.00 | 0.00 | 93 | 1018.7 |
| 20260503231744 | 49 | 290 | 0.0 | 0.0 | 0.00 | 0.00 | 0.00 | 92 | 1018.8 |
| 20260503231245 | 49 | 290 | 0.0 | 0.0 | 0.00 | 0.00 | 0.00 | 92 | 1018.9 |
| 20260503230949 | 50 | 290 | 0.0 | 0.0 | 0.00 | 0.00 | 0.00 | 92 | 1018.8 |
| 20260503230214 | 50 | 290 | 0.0 | 2.0 | 0.00 | 0.00 | 0.00 | 92 | 1018.9 |
| 20260503225652 | 50 | 290 | 1.0 | 2.0 | 0.00 | 0.00 | 0.00 | 92 | 1018.9 |
| 20260503225126 | 50 | 282 | 0.0 | 2.0 | 0.00 | 0.00 | 0.00 | 91 | 1019.0 |
| 20260503224604 | 50 | 282 | 0.0 | 0.0 | 0.00 | 0.00 | 0.00 | 90 | 1019.0 |
| 20260503224035 | 51 | 282 | 0.0 | 0.0 | 0.00 | 0.00 | 0.00 | 91 | 1018.9 |
| 20260503223532 | 51 | 282 | 0.0 | 0.0 | 0.00 | 0.00 | 0.00 | 91 | 1018.9 |
| 20260503223031 | 51 | 282 | 0.0 | 0.0 | 0.00 | 0.00 | 0.00 | 91 | 1018.8 |
| 20260503222503 | 51 | 282 | 0.0 | 0.0 | 0.00 | 0.00 | 0.00 | 90 | 1018.9 |
| 20260503221959 | 52 | 282 | 0.0 | 0.0 | 0.00 | 0.00 | 0.00 | 90 | 1018.8 |
| 20260503221501 | 52 | 282 | 0.0 | 0.0 | 0.00 | 0.00 | 0.00 | 89 | 1018.9 |
| 20260503220934 | 52 | 282 | 0.0 | 2.0 | 0.00 | 0.00 | 0.00 | 88 | 1019.0 |
| 20260503220407 | 53 | 282 | 0.0 | 2.0 | 0.00 | 0.00 | 0.00 | 88 | 1019.0 |
| 20260503215908 | 53 | 282 | 0.0 | 1.0 | 0.00 | 0.00 | 0.00 | 88 | 1018.9 |
| 20260503215341 | 54 | 282 | 0.0 | 0.0 | 0.00 | 0.00 | 0.00 | 88 | 1019.0 |
| 20260503214829 | 54 | 282 | 0.0 | 0.0 | 0.00 | 0.00 | 0.00 | 88 | 1018.9 |
| 20260503214311 | 54 | 282 | 0.0 | 0.0 | 0.00 | 0.00 | 0.00 | 86 | 1018.9 |
| 20260503213747 | 54 | 282 | 1.0 | 2.0 | 0.00 | 0.00 | 0.00 | 86 | 1018.9 |
| 20260503213217 | 55 | 282 | 1.0 | 2.0 | 0.00 | 0.00 | 0.00 | 85 | 1018.9 |
| 20260503212650 | 55 | 282 | 1.0 | 2.0 | 0.00 | 0.00 | 0.00 | 83 | 1019.0 |
| 20260503212122 | 56 | 282 | 1.0 | 2.0 | 0.00 | 0.00 | 0.00 | 83 | 1019.0 |
| 20260503211553 | 57 | 282 | 1.0 | 2.0 | 0.00 | 0.00 | 0.00 | 81 | 1019.0 |
| 20260503211044 | 57 | 282 | 1.0 | 2.0 | 0.00 | 0.00 | 0.00 | 80 | 1019.1 |
| 20260503210521 | 58 | 262 | 1.0 | 2.0 | 0.00 | 0.00 | 0.00 | 78 | 1019.0 |
| 20260503210000 | 59 | 283 | 1.0 | 2.0 | 0.00 | 0.00 | 0.00 | 77 | 1019.0 |
| 20260503205723 | 60 | 283 | 1.0 | 2.0 | 0.00 | 0.00 | 0.00 | 77 | 1018.9 |
| 20260503204929 | 61 | 283 | 1.0 | 2.0 | 0.00 | 0.00 | 0.00 | 73 | 1019.0 |
| 20260503204400 | 62 | 266 | 1.0 | 2.0 | 0.00 | 0.00 | 0.00 | 71 | 1019.1 |
| 20260503203855 | 63 | 246 | 0.0 | 2.0 | 0.00 | 0.00 | 0.00 | 69 | 1019.1 |
| 20260503203342 | 64 | 246 | 0.0 | 2.0 | 0.00 | 0.00 | 0.00 | 67 | 1019.2 |
| 20260503202814 | 65 | 246 | 0.0 | 2.0 | 0.00 | 0.00 | 0.00 | 65 | 1019.2 |
| 20260503202312 | 66 | 160 | 0.0 | 2.0 | 0.00 | 0.00 | 0.00 | 62 | 1019.1 |
| 20260503201744 | 66 | 153 | 1.0 | 4.0 | 0.00 | 0.00 | 0.00 | 62 | 1019.1 |
| 20260503201217 | 67 | 199 | 1.0 | 4.0 | 0.00 | 0.00 | 0.00 | 60 | 1019.2 |
| 20260503200920 | 67 | 130 | 0.0 | 2.0 | 0.00 | 0.00 | 0.00 | 61 | 1019.2 |